Regional Weather Roundup
Issued by NWS

Home | Current Version | Previous Version | Text Only | Print | Product List | Glossary Off
Versions: 1 2 3 4 5 6 7 8 9 10 11 12 13 14 15 16 17 18 19 20 21 22 23 24 25 26 27 28 29 30 31 32 33 34 35 36 37 38 39 40 41 42 43 44 45 46 47 48 49 50

000
ASUS43 KLSX 260807
RWRMO

WEATHER SUMMARY FOR MISSOURI
NATIONAL WEATHER SERVICE SPRINGFIELD MO
300 AM CDT MON SEP 26 2016

NOTE: "FAIR" INDICATES FEW OR NO CLOUDS BELOW 12,000 FEET WITH NO
       SIGNIFICANT WEATHER AND/OR OBSTRUCTIONS TO VISIBILITY.
       CURRENT SKY AND/OR WEATHER CONDITIONS ARE NOT AVAILABLE FOR
       CHILLICOTHE AND FARMINGTON.

MOZ001>031-035>038-043-044-053-054-260900-
...NORTHERN AND WESTERN MISSOURI...

CITY           SKY/WX    TMP DP  RH WIND       PRES   REMARKS
KANSAS CTY INT CLEAR     54  50  86 NW7       30.23R
KANSAS C DTWN  CLEAR     59  55  87 CALM      30.22R
LEE`S SUMMIT   PTCLDY    58  51  78 NW6       30.22S
ST JOSEPH      CLEAR     53  47  79 CALM      30.23S
CHILLICOTHE      N/A     58  47  66 CALM      30.20S
KIRKSVILLE     CLOUDY    57  50  77 W8        30.17R

$$
MOZ066>068-077>081-088>096-101>105-260900-
...SOUTHWEST MISSOURI...

CITY           SKY/WX    TMP DP  RH WIND       PRES   REMARKS
SPRINGFIELD    LGT RAIN  60  56  86 NE7       30.19F
JOPLIN         CLOUDY    60  59  96 CALM        N/A
BRANSON        LGT RAIN  57  57 100 N5        30.20F

$$
MOZ032>034-039>042-045>050-055>058-069>072-260900-
...CENTRAL MISSOURI...

CITY           SKY/WX    TMP DP  RH WIND       PRES   REMARKS
COLUMBIA       CLOUDY    61  59  93 W5        30.16F
JEFFERSON CITY CLOUDY    61  59  93 CALM      30.16S
ROLLA          LGT RAIN  58  56  93 N5        30.16F
SEDALIA        CLOUDY    61  57  87 W6        30.19S
WHITEMAN AFB   PTCLDY    60  59  98 NW6       30.18S

$$
MOZ051-052-059>065-260900-
...EAST CENTRAL MISSOURI...

CITY           SKY/WX    TMP DP  RH WIND       PRES   REMARKS
ST LOUIS INTL  LGT RAIN  62  56  80 NW9       30.12S
SPIRIT OF STL  LGT RAIN  61  57  87 NW5       30.12S
ST CHARLES     LGT RAIN  60  58  92 W5        30.12S

$$
MOZ072>076-082>087-097>100-106>115-260900-
...SOUTH CENTRAL AND SOUTHEAST MISSOURI...

CITY           SKY/WX    TMP DP  RH WIND       PRES   REMARKS
CAPE GIRARDEAU CLOUDY    67  59  75 N16G29    30.07R
FARMINGTON     CLOUDY    61  59  93 NW12G17   30.14R
WEST PLAINS    MOCLDY    60  56  86 NW8G21    30.18R

$$



USA.gov is the U.S. government's official web portal to all federal, state and local government web resources and services.